#timestamp,LO_Frequency,Hit,StdDev 
1634029215.7,286046998.8,N
1634029235.5,286047000.9,N
1634029255.3,286047000.0,N
1634029275.2,286047000.1,N
1634029295.0,286047000.2,N
1634029295.9,286047000.2,N
1634029315.8,286047000.2,N
1634029335.6,286047000.0,N
1634029355.4,286047002.3,N
1634029375.3,286046999.5,N
1634029395.1,286046999.3,N
1634029415.8,286046999.1,N
1634029435.7,286046996.5,N
1634029455.5,286046999.2,N
1634029475.4,286046998.6,N
1634029495.2,286047002.4,N
1634029515.0,286046999.8,N
1634029515.9,286046999.8,N
1634029535.8,286046999.8,N
1634029555.6,286047000.2,N
1634029575.4,286046999.1,N
1634029595.3,286046996.5,N
1634029615.1,286046996.8,N
1634029635.9,286046995.7,N
1634029655.7,286046993.5,Y
1634029675.5,286046993.4,P
1634029695.4,286046994.0,N
1634029715.2,286046995.9,N
1634029735.0,286046996.1,N
1634029735.9,286046996.1,N
1634029755.8,286046995.4,N
1634029775.6,286046996.8,N
1634029795.5,286046996.7,N
1634029815.3,286046997.5,N
1634029835.1,286046997.5,N
1634029855.9,286046995.0,Y
1634029875.7,286047000.6,P
1634029895.6,286047002.0,N
1634029915.4,286047002.3,N
1634029935.2,286047000.5,N
1634029955.1,286047002.6,N
1634029956.0,286047002.6,N
1634029975.8,286047004.6,N
1634029995.6,286047013.2,Y
1634030015.5,286047015.6,P
1634030035.3,286047009.9,N
1634030055.2,286047010.6,N
1634030075.9,286047008.1,N
1634030095.7,286047007.6,N
1634030115.6,286047005.9,N
1634030135.4,286047001.6,N
1634030155.2,286047002.2,N
1634030175.1,286047002.6,N
1634030176.0,286047002.6,N
1634030195.8,286047000.0,N
1634030215.7,286047000.4,N
1634030235.5,286047002.7,N
1634030255.3,286047000.2,N
1634030275.2,286047001.0,N
1634030295.0,286046998.2,N
1634030295.9,286046998.2,N
1634030315.7,286046999.6,N
1634030335.6,286046997.3,N
1634030355.4,286046995.7,N
1634030375.3,286046996.0,N
1634030395.1,286046995.5,N
1634030396.0,286046995.5,N
1634030415.8,286046993.8,N
1634030435.7,286046995.8,N
1634030455.5,286046993.7,N
1634030475.4,286046993.8,N
1634030495.2,286046993.9,N
1634030515.0,286046996.3,N
1634030515.9,286046996.3,N
1634030535.8,286046993.9,N
1634030555.6,286046992.2,N
1634030575.4,286046994.7,N
1634030595.3,286046994.7,N
1634030615.1,286046994.7,N
1634030635.9,286046993.7,N
1634030655.7,286046994.6,N
1634030675.5,286046991.9,N
1634030695.4,286046990.1,Y
1634030715.2,286046997.1,P
1634030735.0,286046999.1,P
1634030736.0,286046999.1,N
1634030755.8,286046997.0,N
1634030775.6,286046997.2,N
1634030795.5,286046995.6,Y
1634030815.3,286046996.7,P
1634030835.1,286046997.4,P
1634030855.9,286046997.4,P
1634030875.7,286046997.2,Y
1634030895.6,286047000.8,P
1634030915.4,286047000.9,N
1634030935.2,286046999.0,N
1634030955.1,286046998.4,N
1634030956.0,286046998.4,N
1634030975.8,286046999.6,N
1634030995.7,286046999.4,N
1634031015.5,286046997.0,N
1634031035.3,286046997.3,N
1634031055.2,286046997.7,N
1634031075.9,286046997.1,N
1634031095.7,286046996.6,N
1634031115.6,286046999.2,N
1634031135.4,286046996.9,N
1634031155.3,286047000.6,N
1634031175.1,286046998.2,N
1634031176.0,286046998.2,N
1634031195.8,286047001.2,N
1634031215.7,286046998.5,N
1634031235.5,286046999.1,N
1634031255.3,286046999.5,N
1634031275.2,286046997.2,N
1634031295.0,286046994.9,Y
1634031295.9,286046994.9,P
1634031315.8,286046997.1,N
1634031335.6,286046996.7,N
1634031355.4,286046997.7,N
1634031375.3,286046996.8,N
1634031395.1,286046997.8,N
1634031415.9,286046995.2,Y
1634031435.7,286046999.3,P
1634031455.5,286046999.3,N
1634031475.4,286046999.0,N
1634031495.2,286046998.9,N
1634031515.1,286046998.4,N
1634031516.0,286046998.4,N
1634031535.8,286046998.1,N
1634031555.6,286047002.0,N
1634031575.5,286047004.9,Y
1634031595.3,286047005.3,P
1634031615.2,286047004.7,N
1634031635.9,286047003.6,N
1634031655.7,286047001.6,N
1634031675.6,286047002.7,N
1634031695.4,286047002.8,N
1634031715.2,286046999.9,N
1634031735.1,286047000.3,N
1634031736.0,286047000.3,N
1634031755.8,286047001.1,N
1634031775.7,286046998.9,N
1634031795.5,286046998.6,N
1634031815.3,286047000.9,N
1634031835.2,286046998.5,N
1634031855.0,286046998.6,N
1634031855.9,286046998.6,N
1634031875.8,286046996.6,N
1634031895.6,286046996.8,N
1634031915.4,286046996.5,N
1634031935.3,286046999.4,N
1634031955.1,286046996.9,N
1634031975.9,286046996.5,N
1634031995.7,286046999.6,N
1634032015.5,286046999.5,N
1634032035.4,286046999.2,N
1634032055.2,286046999.5,N
1634032075.0,286046996.8,N
1634032075.9,286046996.8,N
1634032095.8,286046994.9,N
1634032115.6,286046995.1,N
1634032135.5,286046995.8,N
1634032155.3,286046996.1,N
1634032175.1,286046996.1,N
1634032195.9,286046995.3,N
1634032215.7,286046995.3,N
1634032235.5,286046996.2,N
1634032255.4,286046994.2,Y
1634032275.2,286046996.1,P
1634032295.1,286046995.6,P
1634032296.0,286046995.6,P
1634032315.8,286046997.5,N
1634032335.6,286046996.7,Y
1634032355.5,286047002.3,P
1634032375.3,286046999.8,N
1634032395.2,286047000.6,N
1634032415.9,286047002.6,N
1634032435.7,286047003.4,N
1634032455.6,286047003.6,N
1634032475.4,286047005.5,N
1634032495.2,286047002.0,N
1634032515.1,286047002.4,N
1634032516.0,286047002.4,N
1634032535.8,286047003.6,N
1634032555.7,286047003.4,N
1634032575.5,286047001.6,N
1634032595.3,286047002.4,N
1634032615.2,286047000.4,N
1634032635.0,286047000.2,N
1634032635.9,286047000.2,N
1634032655.7,286046999.0,N
1634032675.6,286046999.3,N
1634032695.4,286047001.1,N
1634032715.3,286046998.6,N
1634032735.1,286047001.1,N
1634032736.0,286047001.1,N
1634032755.8,286046998.3,N
1634032775.7,286046998.4,N
1634032795.5,286046999.6,N
